| time (UTC) | temp F | wind direction | speed MPH | gust MPH | rain 1hr in | rain 24hr in | rain mn in | humidity % | barometer mb |
| 20260507114125 | 41 | 281 | 2.0 | 7.0 | 0.00 | 0.01 | 0.01 | 92 | 1020.6 |
| 20260507113235 | 41 | 240 | 3.0 | 7.0 | 0.00 | 0.01 | 0.01 | 92 | 1020.6 |
| 20260507112734 | 41 | 317 | 4.0 | 6.0 | 0.00 | 0.01 | 0.01 | 92 | 1020.5 |
| 20260507112236 | 42 | 330 | 3.0 | 7.0 | 0.00 | 0.01 | 0.01 | 92 | 1020.5 |
| 20260507112126 | 42 | 357 | 3.0 | 7.0 | 0.00 | 0.01 | 0.01 | 92 | 1020.6 |
| 20260507111621 | 41 | 299 | 3.0 | 7.0 | 0.00 | 0.01 | 0.01 | 92 | 1020.7 |
| 20260507110735 | 41 | 305 | 4.0 | 7.0 | 0.00 | 0.01 | 0.01 | 92 | 1020.6 |
| 20260507110235 | 42 | 282 | 1.0 | 7.0 | 0.00 | 0.01 | 0.01 | 92 | 1020.6 |
| 20260507105733 | 42 | 312 | 2.0 | 6.0 | 0.00 | 0.01 | 0.01 | 92 | 1020.5 |
| 20260507105234 | 42 | 262 | 1.0 | 6.0 | 0.00 | 0.01 | 0.01 | 92 | 1020.5 |
| 20260507104733 | 42 | 245 | 3.0 | 6.0 | 0.00 | 0.01 | 0.01 | 91 | 1020.6 |
| 20260507104234 | 42 | 247 | 3.0 | 6.0 | 0.00 | 0.01 | 0.01 | 91 | 1020.7 |
| 20260507103734 | 42 | 255 | 2.0 | 6.0 | 0.00 | 0.01 | 0.01 | 91 | 1020.7 |
| 20260507103234 | 42 | 289 | 2.0 | 7.0 | 0.00 | 0.01 | 0.01 | 91 | 1020.7 |
| 20260507103120 | 42 | 268 | 3.0 | 7.0 | 0.00 | 0.01 | 0.01 | 91 | 1020.7 |
| 20260507102233 | 42 | 323 | 2.0 | 7.0 | 0.00 | 0.01 | 0.01 | 91 | 1020.7 |
| 20260507102119 | 42 | 323 | 1.0 | 7.0 | 0.00 | 0.01 | 0.01 | 91 | 1020.9 |
| 20260507101236 | 42 | 0 | 3.0 | 7.0 | 0.00 | 0.01 | 0.01 | 91 | 1020.7 |
| 20260507100734 | 42 | 347 | 3.0 | 5.0 | 0.00 | 0.01 | 0.01 | 91 | 1020.7 |
| 20260507100233 | 42 | 324 | 1.0 | 5.0 | 0.00 | 0.01 | 0.01 | 91 | 1020.7 |
| 20260507095733 | 42 | 300 | 1.0 | 7.0 | 0.00 | 0.01 | 0.01 | 91 | 1020.9 |
| 20260507095233 | 42 | 259 | 4.0 | 7.0 | 0.00 | 0.01 | 0.01 | 91 | 1020.9 |
| 20260507094733 | 42 | 331 | 3.0 | 6.0 | 0.00 | 0.01 | 0.01 | 91 | 1020.9 |
| 20260507094235 | 42 | 321 | 3.0 | 6.0 | 0.00 | 0.01 | 0.01 | 91 | 1020.7 |
| 20260507093733 | 43 | 329 | 3.0 | 4.0 | 0.00 | 0.01 | 0.01 | 91 | 1020.9 |
| 20260507093233 | 43 | 309 | 2.0 | 4.0 | 0.00 | 0.01 | 0.01 | 91 | 1020.9 |
| 20260507092735 | 43 | 298 | 2.0 | 4.0 | 0.00 | 0.01 | 0.01 | 90 | 1020.9 |
| 20260507092616 | 43 | 289 | 1.0 | 4.0 | 0.00 | 0.01 | 0.01 | 91 | 1020.9 |
| 20260507091733 | 43 | 327 | 1.0 | 4.0 | 0.00 | 0.01 | 0.01 | 90 | 1020.9 |
| 20260507091233 | 43 | 353 | 3.0 | 4.0 | 0.00 | 0.01 | 0.01 | 91 | 1020.9 |
| 20260507090733 | 43 | 340 | 1.0 | 6.0 | 0.00 | 0.01 | 0.01 | 91 | 1020.9 |
| 20260507090232 | 43 | 341 | 2.0 | 6.0 | 0.00 | 0.01 | 0.01 | 90 | 1020.6 |
| 20260507085733 | 43 | 330 | 2.0 | 4.0 | 0.00 | 0.01 | 0.01 | 90 | 1020.7 |
| 20260507085234 | 43 | 340 | 1.0 | 4.0 | 0.00 | 0.01 | 0.01 | 90 | 1020.7 |
| 20260507084734 | 43 | 334 | 1.0 | 6.0 | 0.00 | 0.01 | 0.01 | 90 | 1020.6 |
| 20260507084235 | 42 | 344 | 4.0 | 6.0 | 0.00 | 0.01 | 0.01 | 90 | 1020.4 |
| 20260507083733 | 42 | 140 | 0.0 | 4.0 | 0.00 | 0.01 | 0.01 | 90 | 1020.3 |
| 20260507083614 | 42 | 118 | 0.0 | 4.0 | 0.00 | 0.01 | 0.01 | 90 | 1020.4 |
| 20260507082733 | 43 | 125 | 1.0 | 4.0 | 0.00 | 0.01 | 0.01 | 89 | 1020.3 |
| 20260507082235 | 43 | 127 | 2.0 | 4.0 | 0.01 | 0.01 | 0.01 | 89 | 1020.3 |
| 20260507081733 | 43 | 135 | 0.0 | 3.0 | 0.01 | 0.01 | 0.01 | 89 | 1020.3 |
| 20260507081235 | 43 | 128 | 2.0 | 3.0 | 0.01 | 0.01 | 0.01 | 89 | 1020.4 |
| 20260507080733 | 43 | 87 | 0.0 | 4.0 | 0.01 | 0.01 | 0.01 | 89 | 1020.4 |
| 20260507080233 | 43 | 99 | 2.0 | 4.0 | 0.01 | 0.01 | 0.01 | 89 | 1020.5 |
| 20260507075734 | 43 | 78 | 0.0 | 2.0 | 0.01 | 0.00 | 0.01 | 89 | 1020.6 |
| 20260507075233 | 43 | 89 | 0.0 | 0.0 | 0.01 | 0.00 | 0.01 | 88 | 1020.5 |
| 20260507075130 | 43 | 52 | 0.0 | 2.0 | 0.01 | 0.00 | 0.01 | 88 | 1020.7 |
| 20260507074233 | 43 | 63 | 0.0 | 5.0 | 0.01 | 0.00 | 0.01 | 88 | 1020.7 |
| 20260507074121 | 43 | 55 | 1.0 | 5.0 | 0.01 | 0.00 | 0.01 | 88 | 1020.4 |
| 20260507073614 | 43 | 86 | 3.0 | 5.0 | 0.01 | 0.00 | 0.01 | 87 | 1020.5 |
| 20260507072734 | 44 | 103 | 3.0 | 4.0 | 0.01 | 0.00 | 0.01 | 87 | 1020.9 |
| 20260507072233 | 44 | 83 | 0.0 | 3.0 | 0.00 | 0.00 | 0.00 | 87 | 1021.2 |
| 20260507072123 | 43 | 347 | 1.0 | 4.0 | 0.00 | 0.00 | 0.00 | 86 | 1021.5 |
| 20260507071233 | 44 | 21 | 0.0 | 4.0 | 0.00 | 0.00 | 0.00 | 85 | 1021.4 |
| 20260507070734 | 44 | 0 | 1.0 | 7.0 | 0.00 | 0.00 | 0.00 | 84 | 1021.6 |
| 20260507070234 | 44 | 0 | 3.0 | 10.0 | 0.00 | 0.00 | 0.00 | 83 | 1021.6 |
| 20260507065735 | 44 | 357 | 3.0 | 10.0 | 0.00 | 0.00 | 0.00 | 81 | 1021.9 |
| 20260507065619 | 45 | 353 | 3.0 | 10.0 | 0.00 | 0.00 | 0.00 | 80 | 1022.0 |
| 20260507064732 | 45 | 309 | 6.0 | 13.0 | 0.00 | 0.00 | 0.00 | 79 | 1021.7 |
| 20260507064232 | 45 | 353 | 6.0 | 13.0 | 0.00 | 0.00 | 0.00 | 78 | 1022.0 |
| 20260507063732 | 45 | 357 | 4.0 | 12.0 | 0.00 | 0.00 | 0.00 | 77 | 1021.7 |
| 20260507063234 | 45 | 345 | 3.0 | 12.0 | 0.00 | 0.00 | 0.00 | 76 | 1022.1 |
| 20260507062734 | 46 | 357 | 5.0 | 9.0 | 0.00 | 0.00 | 0.00 | 75 | 1022.1 |
| 20260507062233 | 46 | 338 | 5.0 | 9.0 | 0.00 | 0.00 | 0.00 | 74 | 1021.9 |
| 20260507061734 | 46 | 354 | 3.0 | 9.0 | 0.00 | 0.00 | 0.00 | 73 | 1021.5 |
| 20260507061233 | 46 | 11 | 4.0 | 9.0 | 0.00 | 0.00 | 0.00 | 73 | 1021.4 |
| 20260507060733 | 46 | 0 | 2.0 | 9.0 | 0.00 | 0.00 | 0.00 | 73 | 1021.4 |
| 20260507060235 | 46 | 34 | 3.0 | 7.0 | 0.00 | 0.00 | 0.00 | 72 | 1021.2 |
| 20260507055732 | 46 | 0 | 2.0 | 10.0 | 0.00 | 0.00 | 0.00 | 71 | 1021.1 |
| 20260507055234 | 46 | 7 | 4.0 | 10.0 | 0.00 | 0.00 | 0.00 | 71 | 1021.2 |
| 20260507054732 | 46 | 18 | 0.0 | 7.0 | 0.00 | 0.00 | 0.00 | 72 | 1021.0 |
| 20260507054232 | 46 | 13 | 2.0 | 7.0 | 0.00 | 0.00 | 0.00 | 72 | 1020.9 |
| 20260507053732 | 46 | 37 | 2.0 | 6.0 | 0.00 | 0.00 | 0.00 | 72 | 1020.9 |
| 20260507053232 | 46 | 14 | 3.0 | 14.0 | 0.00 | 0.00 | 0.00 | 71 | 1021.0 |
| 20260507052732 | 46 | 16 | 6.0 | 14.0 | 0.00 | 0.00 | 0.00 | 70 | 1021.0 |
| 20260507052235 | 46 | 11 | 3.0 | 12.0 | 0.00 | 0.00 | 0.00 | 70 | 1021.0 |
| 20260507051733 | 46 | 7 | 4.0 | 12.0 | 0.00 | 0.00 | 0.00 | 69 | 1020.7 |
| 20260507051233 | 47 | 68 | 4.0 | 13.0 | 0.00 | 0.00 | 0.00 | 69 | 1020.7 |
| 20260507051114 | 47 | 13 | 5.0 | 13.0 | 0.00 | 0.00 | 0.00 | 68 | 1020.7 |
| 20260507050233 | 47 | 0 | 3.0 | 9.0 | 0.00 | 0.00 | 0.00 | 68 | 1020.5 |
| 20260507045733 | 47 | 4 | 3.0 | 12.0 | 0.00 | 0.00 | 0.00 | 67 | 1020.6 |
| 20260507045233 | 47 | 16 | 4.0 | 13.0 | 0.00 | 0.00 | 0.00 | 67 | 1020.9 |
| 20260507045122 | 47 | 14 | 5.0 | 13.0 | 0.00 | 0.00 | 0.00 | 67 | 1021.2 |
| 20260507044233 | 47 | 54 | 4.0 | 11.0 | 0.00 | 0.00 | 0.00 | 67 | 1021.0 |
| 20260507044054 | 47 | 1 | 3.0 | 14.0 | 0.00 | 0.00 | 0.00 | 67 | 1021.1 |
| 20260507043617 | 47 | 24 | 6.0 | 14.0 | 0.00 | 0.00 | 0.00 | 66 | 1021.4 |
| 20260507042732 | 47 | 20 | 6.0 | 16.0 | 0.00 | 0.00 | 0.00 | 66 | 1021.0 |
| 20260507042232 | 47 | 7 | 9.0 | 16.0 | 0.00 | 0.00 | 0.00 | 65 | 1020.6 |
| 20260507041733 | 48 | 3 | 9.0 | 15.0 | 0.00 | 0.00 | 0.00 | 63 | 1020.7 |
| 20260507041232 | 49 | 21 | 5.0 | 15.0 | 0.00 | 0.00 | 0.00 | 62 | 1020.6 |
| 20260507040734 | 49 | 32 | 7.0 | 15.0 | 0.00 | 0.00 | 0.00 | 61 | 1020.6 |
| 20260507040233 | 49 | 0 | 5.0 | 14.0 | 0.00 | 0.00 | 0.00 | 61 | 1020.5 |
| 20260507040123 | 49 | 44 | 5.0 | 16.0 | 0.00 | 0.00 | 0.00 | 61 | 1020.5 |
| 20260507035232 | 49 | 348 | 6.0 | 16.0 | 0.00 | 0.00 | 0.00 | 61 | 1020.4 |
| 20260507034735 | 49 | 34 | 6.0 | 23.0 | 0.00 | 0.00 | 0.00 | 61 | 1020.5 |
| 20260507034232 | 49 | 0 | 6.0 | 23.0 | 0.00 | 0.00 | 0.00 | 61 | 1020.6 |
| 20260507033734 | 50 | 37 | 9.0 | 16.0 | 0.00 | 0.00 | 0.00 | 60 | 1020.4 |
| 20260507033232 | 50 | 31 | 3.0 | 14.0 | 0.00 | 0.00 | 0.00 | 60 | 1020.4 |
| 20260507032732 | 49 | 49 | 7.0 | 19.0 | 0.00 | 0.00 | 0.00 | 60 | 1020.3 |
| 20260507032615 | 50 | 62 | 10.0 | 19.0 | 0.00 | 0.00 | 0.00 | 60 | 1020.2 |
| 20260507031733 | 50 | 34 | 6.0 | 17.0 | 0.00 | 0.00 | 0.00 | 61 | 1020.1 |
| 20260507031233 | 50 | 319 | 9.0 | 15.0 | 0.00 | 0.00 | 0.00 | 61 | 1020.0 |
| 20260507031012 | 51 | 344 | 8.0 | 17.0 | 0.00 | 0.00 | 0.00 | 58 | 1019.7 |
| 20260507030902 | 51 | 3 | 8.0 | 17.0 | 0.00 | 0.00 | 0.00 | 60 | 1019.8 |
| 20260507025733 | 52 | 35 | 4.0 | 14.0 | 0.00 | 0.00 | 0.00 | 57 | 1019.6 |
| 20260507025620 | 52 | 76 | 4.0 | 13.0 | 0.00 | 0.00 | 0.00 | 57 | 1019.7 |
| 20260507024733 | 52 | 20 | 6.0 | 19.0 | 0.00 | 0.00 | 0.00 | 58 | 1019.5 |
| 20260507024232 | 52 | 25 | 8.0 | 19.0 | 0.00 | 0.00 | 0.00 | 57 | 1019.4 |
| 20260507023732 | 52 | 23 | 9.0 | 17.0 | 0.00 | 0.00 | 0.00 | 57 | 1019.2 |
| 20260507023625 | 52 | 14 | 8.0 | 17.0 | 0.00 | 0.00 | 0.00 | 57 | 1019.0 |
| 20260507022733 | 52 | 16 | 4.0 | 13.0 | 0.00 | 0.00 | 0.00 | 57 | 1018.8 |
| 20260507022234 | 53 | 25 | 6.0 | 16.0 | 0.00 | 0.00 | 0.00 | 56 | 1018.6 |
| 20260507022122 | 53 | 6 | 7.0 | 16.0 | 0.00 | 0.00 | 0.00 | 55 | 1018.7 |
| 20260507021622 | 53 | 48 | 4.0 | 16.0 | 0.00 | 0.00 | 0.00 | 54 | 1018.6 |
| 20260507020732 | 54 | 20 | 7.0 | 16.0 | 0.00 | 0.00 | 0.00 | 54 | 1018.4 |
| 20260507020232 | 54 | 0 | 5.0 | 16.0 | 0.00 | 0.00 | 0.00 | 54 | 1018.2 |
| 20260507020125 | 54 | 347 | 5.0 | 14.0 | 0.00 | 0.00 | 0.00 | 55 | 1018.0 |
| 20260507015233 | 54 | 8 | 6.0 | 12.0 | 0.00 | 0.00 | 0.00 | 55 | 1017.6 |
| 20260507014731 | 54 | 6 | 2.0 | 9.0 | 0.00 | 0.00 | 0.00 | 56 | 1017.4 |
| 20260507014617 | 54 | 44 | 3.0 | 10.0 | 0.00 | 0.00 | 0.00 | 55 | 1017.2 |
| 20260507013732 | 55 | 14 | 4.0 | 12.0 | 0.00 | 0.00 | 0.00 | 55 | 1017.2 |
| 20260507013232 | 55 | 69 | 4.0 | 12.0 | 0.00 | 0.00 | 0.00 | 55 | 1016.9 |
| 20260507012735 | 55 | 23 | 2.0 | 7.0 | 0.00 | 0.00 | 0.00 | 54 | 1016.7 |
| 20260507012232 | 55 | 329 | 1.0 | 6.0 | 0.00 | 0.00 | 0.00 | 53 | 1016.6 |
| 20260507011732 | 56 | 44 | 1.0 | 7.0 | 0.00 | 0.00 | 0.00 | 53 | 1016.4 |
| 20260507011231 | 56 | 47 | 2.0 | 7.0 | 0.00 | 0.00 | 0.00 | 52 | 1016.2 |
| 20260507010732 | 56 | 49 | 2.0 | 7.0 | 0.00 | 0.00 | 0.00 | 52 | 1016.2 |
| 20260507010619 | 56 | 45 | 2.0 | 7.0 | 0.00 | 0.00 | 0.00 | 52 | 1015.8 |
| 20260507005733 | 56 | 47 | 2.0 | 6.0 | 0.00 | 0.00 | 0.00 | 52 | 1015.7 |
| 20260507005324 | 57 | 55 | 1.0 | 7.0 | 0.00 | 0.00 | 0.00 | 52 | 1015.7 |
| 20260507004901 | 57 | 71 | 1.0 | 7.0 | 0.00 | 0.00 | 0.00 | 52 | 1015.6 |
| 20260507004120 | 57 | 0 | 2.0 | 10.0 | 0.00 | 0.00 | 0.00 | 51 | 1015.4 |
| 20260507003232 | 58 | 52 | 2.0 | 11.0 | 0.00 | 0.00 | 0.00 | 51 | 1015.5 |
| 20260507002732 | 58 | 110 | 3.0 | 11.0 | 0.00 | 0.00 | 0.00 | 51 | 1015.5 |
| 20260507002233 | 57 | 0 | 1.0 | 11.0 | 0.00 | 0.00 | 0.00 | 51 | 1015.5 |
| 20260507001732 | 58 | 37 | 2.0 | 11.0 | 0.00 | 0.00 | 0.00 | 50 | 1015.3 |
| 20260507001233 | 59 | 100 | 2.0 | 13.0 | 0.00 | 0.00 | 0.00 | 49 | 1015.2 |
| 20260507000734 | 59 | 52 | 3.0 | 13.0 | 0.00 | 0.00 | 0.00 | 49 | 1015.1 |
| 20260507000233 | 60 | 63 | 3.0 | 11.0 | 0.00 | 0.00 | 0.00 | 49 | 1015.1 |
| 20260507000136 | 60 | 113 | 4.0 | 11.0 | 0.00 | 0.00 | 0.00 | 49 | 1014.9 |
| 20260506235232 | 60 | 110 | 4.0 | 9.0 | 0.00 | 0.00 | 0.00 | 49 | 1014.7 |
| 20260506234732 | 60 | 117 | 5.0 | 17.0 | 0.00 | 0.00 | 0.00 | 48 | 1014.7 |
| 20260506234233 | 60 | 39 | 5.0 | 17.0 | 0.00 | 0.00 | 0.00 | 48 | 1014.7 |
| 20260506233732 | 60 | 71 | 8.0 | 15.0 | 0.00 | 0.00 | 0.00 | 47 | 1014.7 |
| 20260506233232 | 60 | 124 | 7.0 | 14.0 | 0.00 | 0.00 | 0.00 | 47 | 1014.6 |
| 20260506232732 | 60 | 110 | 7.0 | 14.0 | 0.00 | 0.00 | 0.00 | 48 | 1014.6 |
| 20260506232232 | 60 | 65 | 4.0 | 19.0 | 0.00 | 0.00 | 0.00 | 48 | 1014.7 |
| 20260506231735 | 60 | 102 | 13.0 | 19.0 | 0.00 | 0.00 | 0.00 | 47 | 1014.7 |
| 20260506231515 | 62 | 86 | 3.0 | 10.0 | 0.00 | 0.00 | 0.00 | 47 | 1014.9 |
| 20260506231400 | 61 | 164 | 3.0 | 10.0 | 0.00 | 0.00 | 0.00 | 48 | 1014.8 |
| 20260506230233 | 61 | 85 | 5.0 | 11.0 | 0.00 | 0.00 | 0.00 | 47 | 1014.9 |
| 20260506225731 | 61 | 99 | 4.0 | 12.0 | 0.00 | 0.00 | 0.00 | 48 | 1014.7 |
| 20260506225232 | 61 | 100 | 5.0 | 12.0 | 0.00 | 0.00 | 0.00 | 46 | 1014.8 |
| 20260506224732 | 61 | 123 | 2.0 | 10.0 | 0.00 | 0.00 | 0.00 | 48 | 1014.8 |
| 20260506224619 | 60 | 83 | 4.0 | 15.0 | 0.00 | 0.00 | 0.00 | 48 | 1014.8 |
| 20260506223733 | 60 | 107 | 9.0 | 15.0 | 0.00 | 0.00 | 0.00 | 48 | 1014.8 |
| 20260506223414 | 61 | 109 | 2.0 | 9.0 | 0.00 | 0.00 | 0.00 | 48 | 1014.9 |
| 20260506223404 | 61 | 107 | 5.0 | 11.0 | 0.00 | 0.00 | 0.00 | 47 | 1014.9 |
| 20260506223320 | 60 | 83 | 8.0 | 15.0 | 0.00 | 0.00 | 0.00 | 47 | 1014.8 |
| 20260506221732 | 61 | 16 | 2.0 | 13.0 | 0.00 | 0.00 | 0.00 | 49 | 1015.1 |
| 20260506221233 | 61 | 114 | 5.0 | 13.0 | 0.00 | 0.00 | 0.00 | 49 | 1015.1 |
| 20260506220732 | 61 | 193 | 3.0 | 9.0 | 0.00 | 0.00 | 0.00 | 48 | 1015.3 |
| 20260506220233 | 61 | 34 | 2.0 | 12.0 | 0.00 | 0.00 | 0.00 | 48 | 1015.3 |
| 20260506215732 | 62 | 42 | 6.0 | 12.0 | 0.00 | 0.00 | 0.00 | 47 | 1015.3 |
| 20260506215231 | 62 | 78 | 3.0 | 11.0 | 0.00 | 0.00 | 0.00 | 48 | 1015.2 |
| 20260506214733 | 62 | 138 | 1.0 | 7.0 | 0.00 | 0.00 | 0.00 | 48 | 1015.3 |
| 20260506214233 | 61 | 18 | 2.0 | 13.0 | 0.00 | 0.00 | 0.00 | 48 | 1015.3 |
| 20260506213732 | 60 | 24 | 5.0 | 15.0 | 0.00 | 0.00 | 0.00 | 49 | 1015.4 |
| 20260506213232 | 60 | 106 | 7.0 | 15.0 | 0.00 | 0.00 | 0.00 | 48 | 1015.5 |
| 20260506212732 | 60 | 49 | 5.0 | 12.0 | 0.00 | 0.00 | 0.00 | 48 | 1015.4 |
| 20260506212231 | 62 | 111 | 4.0 | 17.0 | 0.00 | 0.00 | 0.00 | 50 | 1015.4 |
| 20260506211915 | 62 | 37 | 2.0 | 15.0 | 0.00 | 0.00 | 0.00 | 49 | 1015.5 |
| 20260506211907 | 62 | 75 | 5.0 | 15.0 | 0.00 | 0.00 | 0.00 | 48 | 1015.5 |
| 20260506211822 | 61 | 59 | 5.0 | 17.0 | 0.00 | 0.00 | 0.00 | 48 | 1015.5 |
| 20260506210231 | 62 | 85 | 5.0 | 12.0 | 0.00 | 0.00 | 0.00 | 48 | 1015.5 |
| 20260506205734 | 60 | 56 | 2.0 | 11.0 | 0.00 | 0.00 | 0.00 | 51 | 1015.5 |
| 20260506205621 | 58 | 56 | 3.0 | 11.0 | 0.00 | 0.00 | 0.00 | 51 | 1015.5 |
| 20260506204731 | 59 | 44 | 4.0 | 7.0 | 0.00 | 0.00 | 0.00 | 50 | 1015.6 |
| 20260506204619 | 60 | 11 | 2.0 | 10.0 | 0.00 | 0.00 | 0.00 | 47 | 1015.6 |
| 20260506204116 | 63 | 34 | 4.0 | 15.0 | 0.00 | 0.00 | 0.00 | 47 | 1015.5 |
| 20260506203231 | 62 | 83 | 6.0 | 15.0 | 0.00 | 0.00 | 0.00 | 48 | 1015.5 |
| 20260506202732 | 61 | 17 | 5.0 | 11.0 | 0.00 | 0.00 | 0.00 | 49 | 1015.5 |
| 20260506202233 | 61 | 18 | 3.0 | 10.0 | 0.00 | 0.00 | 0.00 | 49 | 1015.5 |
| 20260506202021 | 60 | 111 | 9.0 | 13.0 | 0.00 | 0.00 | 0.00 | 49 | 1015.4 |
| 20260506201906 | 61 | 45 | 3.0 | 13.0 | 0.00 | 0.00 | 0.00 | 49 | 1015.4 |
| 20260506200731 | 61 | 82 | 5.0 | 9.0 | 0.00 | 0.00 | 0.00 | 48 | 1015.3 |
| 20260506200232 | 61 | 49 | 2.0 | 10.0 | 0.00 | 0.00 | 0.00 | 48 | 1015.3 |
| 20260506195734 | 60 | 130 | 5.0 | 15.0 | 0.00 | 0.00 | 0.00 | 49 | 1015.3 |
| 20260506195232 | 59 | 100 | 5.0 | 15.0 | 0.00 | 0.00 | 0.00 | 49 | 1015.6 |
| 20260506194732 | 61 | 102 | 3.0 | 13.0 | 0.00 | 0.00 | 0.00 | 48 | 1015.5 |
| 20260506194232 | 61 | 45 | 3.0 | 11.0 | 0.00 | 0.00 | 0.00 | 51 | 1015.6 |
| 20260506193731 | 60 | 130 | 3.0 | 7.0 | 0.00 | 0.00 | 0.00 | 50 | 1015.6 |
| 20260506193233 | 59 | 117 | 3.0 | 9.0 | 0.00 | 0.00 | 0.00 | 50 | 1015.7 |
| 20260506192733 | 59 | 120 | 3.0 | 9.0 | 0.00 | 0.00 | 0.00 | 52 | 1015.9 |
| 20260506192232 | 57 | 104 | 2.0 | 7.0 | 0.00 | 0.00 | 0.00 | 53 | 1015.9 |
| 20260506191731 | 57 | 59 | 3.0 | 9.0 | 0.00 | 0.00 | 0.00 | 52 | 1015.9 |
| 20260506191237 | 58 | 120 | 3.0 | 10.0 | 0.00 | 0.00 | 0.00 | 52 | 1015.9 |
| 20260506190732 | 60 | 90 | 3.0 | 10.0 | 0.00 | 0.00 | 0.00 | 50 | 1015.9 |
| 20260506190233 | 59 | 28 | 2.0 | 7.0 | 0.00 | 0.00 | 0.00 | 52 | 1015.8 |
| 20260506185732 | 59 | 75 | 3.0 | 7.0 | 0.00 | 0.00 | 0.00 | 54 | 1016.1 |
| 20260506185232 | 56 | 85 | 2.0 | 7.0 | 0.00 | 0.00 | 0.00 | 55 | 1016.1 |
| 20260506184732 | 57 | 62 | 2.0 | 11.0 | 0.00 | 0.00 | 0.00 | 54 | 1016.1 |
| 20260506184622 | 57 | 114 | 5.0 | 12.0 | 0.00 | 0.00 | 0.00 | 53 | 1016.2 |
| 20260506183733 | 59 | 118 | 4.0 | 11.0 | 0.00 | 0.00 | 0.00 | 56 | 1016.2 |
| 20260506183232 | 59 | 144 | 3.0 | 10.0 | 0.00 | 0.00 | 0.00 | 52 | 1016.2 |
| 20260506182732 | 59 | 14 | 2.0 | 5.0 | 0.00 | 0.00 | 0.00 | 53 | 1016.4 |
| 20260506182613 | 58 | 38 | 2.0 | 5.0 | 0.00 | 0.00 | 0.00 | 56 | 1016.5 |
| 20260506181733 | 56 | 76 | 2.0 | 5.0 | 0.00 | 0.00 | 0.00 | 56 | 1016.7 |
| 20260506181231 | 56 | 39 | 1.0 | 6.0 | 0.00 | 0.00 | 0.00 | 58 | 1016.7 |
| 20260506180732 | 54 | 20 | 2.0 | 7.0 | 0.00 | 0.00 | 0.00 | 59 | 1016.8 |
| 20260506180233 | 55 | 124 | 3.0 | 7.0 | 0.00 | 0.00 | 0.00 | 58 | 1016.7 |
| 20260506175732 | 54 | 58 | 4.0 | 9.0 | 0.00 | 0.00 | 0.00 | 59 | 1016.7 |
| 20260506175232 | 53 | 247 | 0.0 | 9.0 | 0.00 | 0.00 | 0.00 | 58 | 1016.9 |
| 20260506174731 | 53 | 100 | 6.0 | 9.0 | 0.00 | 0.00 | 0.00 | 58 | 1016.9 |
| 20260506174626 | 54 | 90 | 3.0 | 7.0 | 0.00 | 0.00 | 0.00 | 57 | 1017.1 |
| 20260506174114 | 54 | 111 | 3.0 | 7.0 | 0.00 | 0.00 | 0.00 | 57 | 1016.9 |
| 20260506173232 | 55 | 224 | 2.0 | 12.0 | 0.00 | 0.00 | 0.00 | 56 | 1017.1 |
| 20260506172733 | 55 | 51 | 3.0 | 13.0 | 0.00 | 0.00 | 0.00 | 57 | 1016.9 |
| 20260506172613 | 56 | 97 | 7.0 | 13.0 | 0.00 | 0.00 | 0.00 | 58 | 1017.1 |
| 20260506171732 | 53 | 106 | 4.0 | 11.0 | 0.00 | 0.00 | 0.00 | 59 | 1016.9 |
| 20260506171232 | 53 | 44 | 3.0 | 15.0 | 0.00 | 0.00 | 0.00 | 62 | 1016.8 |
| 20260506171117 | 52 | 106 | 7.0 | 15.0 | 0.00 | 0.00 | 0.00 | 62 | 1016.9 |
| 20260506170621 | 52 | 97 | 4.0 | 14.0 | 0.00 | 0.00 | 0.00 | 61 | 1016.8 |
| 20260506165731 | 52 | 300 | 1.0 | 11.0 | 0.00 | 0.00 | 0.00 | 62 | 1016.9 |
| 20260506165231 | 51 | 97 | 5.0 | 11.0 | 0.00 | 0.00 | 0.00 | 62 | 1016.6 |
| 20260506165119 | 51 | 121 | 5.0 | 10.0 | 0.00 | 0.00 | 0.00 | 63 | 1016.7 |
| 20260506164234 | 51 | 86 | 5.0 | 11.0 | 0.00 | 0.00 | 0.00 | 63 | 1016.9 |
| 20260506163732 | 51 | 109 | 6.0 | 12.0 | 0.00 | 0.00 | 0.00 | 64 | 1016.8 |
| 20260506163232 | 50 | 94 | 4.0 | 12.0 | 0.00 | 0.00 | 0.00 | 64 | 1016.8 |
| 20260506162732 | 50 | 35 | 1.0 | 9.0 | 0.00 | 0.00 | 0.00 | 65 | 1016.8 |
| 20260506162617 | 50 | 125 | 6.0 | 10.0 | 0.00 | 0.00 | 0.00 | 64 | 1016.8 |
| 20260506161731 | 51 | 134 | 5.0 | 10.0 | 0.00 | 0.00 | 0.00 | 64 | 1016.7 |
| 20260506161234 | 51 | 131 | 2.0 | 11.0 | 0.00 | 0.00 | 0.00 | 64 | 1016.5 |
| 20260506160730 | 50 | 109 | 6.0 | 11.0 | 0.00 | 0.00 | 0.00 | 62 | 1016.4 |
| 20260506160231 | 50 | 130 | 1.0 | 10.0 | 0.00 | 0.00 | 0.00 | 65 | 1016.3 |
| 20260506155903 | 49 | 121 | 6.0 | 11.0 | 0.00 | 0.00 | 0.00 | 65 | 1016.2 |
| 20260506155857 | 49 | 123 | 3.0 | 11.0 | 0.00 | 0.00 | 0.00 | 65 | 1016.3 |
| 20260506155817 | 49 | 124 | 7.0 | 10.0 | 0.00 | 0.00 | 0.00 | 64 | 1016.4 |
| 20260506154625 | 49 | 85 | 6.0 | 10.0 | 0.00 | 0.00 | 0.00 | 66 | 1016.2 |
| 20260506153732 | 48 | 75 | 6.0 | 10.0 | 0.00 | 0.00 | 0.00 | 66 | 1016.3 |
| 20260506153230 | 48 | 97 | 5.0 | 7.0 | 0.00 | 0.00 | 0.00 | 65 | 1016.3 |
| 20260506153121 | 48 | 47 | 3.0 | 9.0 | 0.00 | 0.00 | 0.00 | 66 | 1016.3 |
| 20260506152232 | 48 | 92 | 1.0 | 9.0 | 0.00 | 0.00 | 0.00 | 66 | 1016.1 |
| 20260506151733 | 48 | 97 | 4.0 | 9.0 | 0.00 | 0.00 | 0.00 | 66 | 1016.2 |
| 20260506151232 | 47 | 69 | 0.0 | 7.0 | 0.00 | 0.00 | 0.00 | 67 | 1016.2 |
| 20260506150732 | 47 | 180 | 4.0 | 9.0 | 0.00 | 0.00 | 0.00 | 67 | 1016.2 |
| 20260506150622 | 47 | 104 | 1.0 | 11.0 | 0.00 | 0.00 | 0.00 | 68 | 1016.1 |
| 20260506145730 | 47 | 116 | 4.0 | 11.0 | 0.00 | 0.00 | 0.00 | 68 | 1016.1 |
| 20260506145624 | 46 | 130 | 4.0 | 9.0 | 0.00 | 0.00 | 0.00 | 68 | 1016.1 |
| 20260506145116 | 46 | 103 | 4.0 | 10.0 | 0.00 | 0.00 | 0.00 | 68 | 1016.1 |
| 20260506144231 | 46 | 140 | 4.0 | 11.0 | 0.00 | 0.00 | 0.00 | 69 | 1015.9 |
| 20260506143731 | 46 | 120 | 7.0 | 12.0 | 0.00 | 0.00 | 0.00 | 68 | 1015.7 |
| 20260506143230 | 46 | 134 | 6.0 | 12.0 | 0.00 | 0.00 | 0.00 | 68 | 1015.7 |
| 20260506142731 | 46 | 111 | 4.0 | 11.0 | 0.00 | 0.00 | 0.00 | 68 | 1015.7 |
| 20260506142231 | 46 | 92 | 7.0 | 11.0 | 0.00 | 0.00 | 0.00 | 68 | 1015.6 |
| 20260506141733 | 46 | 103 | 5.0 | 11.0 | 0.00 | 0.00 | 0.00 | 69 | 1015.6 |
| 20260506141232 | 46 | 110 | 4.0 | 14.0 | 0.00 | 0.00 | 0.00 | 69 | 1015.4 |
| 20260506140733 | 45 | 110 | 7.0 | 14.0 | 0.00 | 0.00 | 0.00 | 69 | 1015.3 |
| 20260506140231 | 45 | 134 | 6.0 | 15.0 | 0.00 | 0.00 | 0.00 | 70 | 1015.3 |
| 20260506140127 | 45 | 89 | 9.0 | 17.0 | 0.00 | 0.00 | 0.00 | 70 | 1015.1 |
| 20260506135624 | 44 | 114 | 11.0 | 17.0 | 0.00 | 0.00 | 0.00 | 70 | 1015.1 |
| 20260506134731 | 44 | 120 | 12.0 | 16.0 | 0.00 | 0.00 | 0.00 | 70 | 1015.1 |
| 20260506134231 | 44 | 78 | 8.0 | 16.0 | 0.00 | 0.00 | 0.00 | 70 | 1015.1 |
| 20260506133732 | 44 | 83 | 7.0 | 16.0 | 0.00 | 0.00 | 0.00 | 71 | 1015.2 |
| 20260506133231 | 44 | 118 | 8.0 | 13.0 | 0.00 | 0.00 | 0.00 | 71 | 1015.3 |
| 20260506132731 | 44 | 90 | 5.0 | 14.0 | 0.00 | 0.00 | 0.00 | 71 | 1015.5 |
| 20260506132232 | 44 | 85 | 6.0 | 14.0 | 0.00 | 0.00 | 0.00 | 72 | 1015.5 |
| 20260506131731 | 44 | 128 | 7.0 | 13.0 | 0.00 | 0.00 | 0.00 | 71 | 1015.3 |
| 20260506131231 | 44 | 94 | 8.0 | 14.0 | 0.00 | 0.00 | 0.00 | 72 | 1015.5 |
| 20260506130731 | 43 | 99 | 7.0 | 15.0 | 0.00 | 0.00 | 0.00 | 72 | 1015.6 |
| 20260506130618 | 43 | 118 | 9.0 | 15.0 | 0.00 | 0.00 | 0.00 | 71 | 1015.9 |
| 20260506125732 | 43 | 100 | 8.0 | 15.0 | 0.00 | 0.00 | 0.00 | 71 | 1015.9 |
| 20260506125233 | 44 | 75 | 4.0 | 12.0 | 0.00 | 0.00 | 0.00 | 71 | 1015.6 |
| 20260506124732 | 43 | 127 | 5.0 | 12.0 | 0.00 | 0.00 | 0.00 | 72 | 1015.7 |
| 20260506124231 | 43 | 82 | 3.0 | 12.0 | 0.00 | 0.00 | 0.00 | 73 | 1015.8 |
| 20260506123731 | 43 | 104 | 7.0 | 12.0 | 0.00 | 0.00 | 0.00 | 72 | 1015.5 |
| 20260506123232 | 43 | 86 | 5.0 | 12.0 | 0.00 | 0.00 | 0.00 | 73 | 1015.6 |
| 20260506123119 | 42 | 93 | 3.0 | 9.0 | 0.00 | 0.00 | 0.00 | 73 | 1015.8 |
| 20260506122231 | 42 | 97 | 3.0 | 9.0 | 0.00 | 0.00 | 0.00 | 73 | 1015.9 |
| 20260506121731 | 42 | 117 | 4.0 | 11.0 | 0.00 | 0.00 | 0.00 | 73 | 1015.6 |
| 20260506121233 | 42 | 124 | 5.0 | 11.0 | 0.00 | 0.00 | 0.00 | 73 | 1015.5 |
| 20260506120731 | 42 | 140 | 4.0 | 12.0 | 0.00 | 0.00 | 0.00 | 73 | 1015.5 |
| 20260506120232 | 42 | 103 | 8.0 | 14.0 | 0.00 | 0.00 | 0.00 | 73 | 1015.4 |
| 20260506115734 | 42 | 96 | 9.0 | 17.0 | 0.00 | 0.00 | 0.00 | 73 | 1015.3 |
| 20260506115234 | 42 | 110 | 7.0 | 17.0 | 0.00 | 0.00 | 0.00 | 74 | 1015.3 |
| 20260506114731 | 42 | 94 | 7.0 | 17.0 | 0.00 | 0.00 | 0.00 | 75 | 1015.1 |
| 20260506114231 | 42 | 117 | 8.0 | 17.0 | 0.00 | 0.00 | 0.00 | 75 | 1014.9 |